Location: Brompton
(51.4000°N, 0.5333°E)
Time: 16:48:50
(UTC+00:00)

Cosmos 990 Rocket - Pass Details

Date: 11 May 2021
Orbit: 747 x 769 km, 74.0° (Epoch: 24 June)

Event Time Altitude Azimuth Distance (km) Brightness Sun altitude
Exits shadow 23:00:06 18° 224° (SW) 1,826 5.6 -19.5°
Maximum altitude 23:03:58 58° 299° (WNW) 893 4.5 -19.6°
Drops below altitude 10° 23:09:10 10° 19° (NNE) 2,321 7.3 -19.8°
Sets 23:11:36 0° 24° (NNE) 3,253 8.2 -19.8°
